Weather History for Omaha Offutt, NE

Change the Weather History Date:

Wednesday, January 29, 2014

  Actual Average Record
Temperature  
Mean Temperature 20 °F -  
Max Temperature 45 °F 32 °F 45 °F (2014)
Min Temperature -4 °F 16 °F -5 °F (2004)
Degree Days  
Heating Degree Days 44    
Moisture  
Dew Point 4 °F    
Average Humidity 49    
Maximum Humidity 81    
Minimum Humidity 23    
Precipitation  
Precipitation 0.00 in - - ()
Sea Level Pressure  
Sea Level Pressure 30.01 in    
Wind  
Wind Speed 7 mph (SSE)    
Max Wind Speed 20 mph    
Max Gust Speed 28 mph    
Visibility 10 miles    
Events      
Averages and records for this station are not official NWS values.
T = Trace of Precipitation, MM = Missing Value Source: NWS Daily Summary

Daily Weather History Graph

Daily Weather History Graph

Search for Another Location

Airport:

Trip Planner

Search our weather history database for the weather conditions in past years. The results will help you decide how hot, cold, wet, or windy it might be!

Date:

Astronomy

Jan. 29, 2014 Rise Set
Actual Time 7:37 AM CST 5:36 PM CST
Civil Twilight 7:07 AM CST 6:06 PM CST
Nautical Twilight 6:34 AM CST 6:39 PM CST
Astronomical Twilight 6:02 AM CST 7:11 PM CST
Moon 6:14 AM CST (1/29) 4:37 PM CST (1/29)
Length of Visible Light 10h 58m
Length of Day
9h 59m
Waning Crescent, 2% of the Moon is Illuminated
Jan 29
Waning Crescent
Jan 30
New
Feb 6
First Quarter
Feb 14
Full
Feb 22
Last Quarter

Hourly Weather History & Observations

Time (CST) Temp. Windchill Dew Point Humidity Pressure Visibility Wind Dir Wind Speed Gust Speed Precip Events Conditions
12:58 AM -0.0 °F - -7.6 °F 70% 30.31 in 10.0 mi ENE 2.3 mph - 0.00 in   Clear
1:58 AM -2.9 °F -11.2 °F -8.3 °F 78% 30.29 in 10.0 mi East 3.5 mph - N/A   Clear
2:58 AM -2.6 °F - -8.1 °F 77% 30.27 in 10.0 mi ENE 2.3 mph - N/A   Clear
3:58 AM -3.5 °F - -8.9 °F 78% 30.25 in 10.0 mi East 2.3 mph - N/A   Clear
4:58 AM -3.6 °F -12.0 °F -8.3 °F 80% 30.22 in 10.0 mi East 3.5 mph - N/A   Clear
5:58 AM -1.3 °F -9.3 °F -6.7 °F 78% 30.21 in 10.0 mi ESE 3.5 mph - N/A   Clear
6:58 AM -4.9 °F -15.6 °F -9.4 °F 81% 30.21 in 10.0 mi East 4.6 mph - N/A   Clear
7:58 AM 0.3 °F -11.2 °F -4.4 °F 81% 30.19 in 10.0 mi East 5.8 mph - N/A   Clear
8:58 AM 8.6 °F 0.1 °F 3.2 °F 79% 30.18 in 10.0 mi SE 4.6 mph - N/A   Clear
9:58 AM 18.9 °F 10.8 °F 6.6 °F 59% 30.15 in 10.0 mi South 5.8 mph - N/A   Clear
10:58 AM 25.9 °F 16.0 °F 8.4 °F 48% 30.14 in 10.0 mi South 10.4 mph - N/A   Clear
11:58 AM 33.3 °F 25.1 °F 10.4 °F 39% 30.08 in 10.0 mi South 10.4 mph 18.4 mph N/A   Clear
12:58 PM 40.5 °F 32.8 °F 10.8 °F 30% 30.00 in 10.0 mi SSW 13.8 mph 20.7 mph N/A   Clear
1:58 PM 42.6 °F 34.0 °F 10.4 °F 27% 29.96 in 10.0 mi South 19.6 mph 27.6 mph N/A   Clear
2:58 PM 45.1 °F 37.6 °F 9.5 °F 23% 29.92 in 10.0 mi South 18.4 mph 26.5 mph N/A   Clear
3:58 PM 45.3 °F 38.4 °F 9.7 °F 23% 29.88 in 10.0 mi South 16.1 mph 23.0 mph N/A   Clear
4:58 PM 44.1 °F 37.7 °F 9.5 °F 24% 29.86 in 10.0 mi South 12.7 mph - N/A   Clear
5:58 PM 40.3 °F 33.9 °F 9.5 °F 28% 29.84 in 10.0 mi South 10.4 mph - N/A   Clear
6:55 PM 38.3 °F 31.4 °F 9.7 °F 31% 29.81 in 10.0 mi South 10.4 mph - N/A   Clear
6:58 PM 38.3 °F 31.4 °F 9.7 °F 31% 29.81 in 10.0 mi South 10.4 mph - N/A   Clear
7:58 PM 37.8 °F 29.8 °F 9.0 °F 30% 29.79 in 10.0 mi South 12.7 mph 19.6 mph N/A   Clear
8:58 PM 30.9 °F 21.7 °F 9.0 °F 40% 29.77 in 10.0 mi SSE 11.5 mph - N/A   Clear
9:58 PM 35.6 °F 27.5 °F 10.6 °F 36% 29.73 in 10.0 mi South 11.5 mph - N/A   Clear
10:58 PM 36.3 °F 28.0 °F 10.0 °F 34% 29.69 in 10.0 mi South 12.7 mph - N/A   Clear
11:58 PM 36.5 °F 27.0 °F 8.4 °F 31% 29.66 in 10.0 mi South 16.1 mph - N/A   Clear